When you browse on this site, cookies collect data to enhance your experience and personalize the content and advertising you see.
Visit our Privacy Policy to learn more. By continuing to use the site, you agree to this use of cookies and data.
  • In Austria
  • List of Countries
  • For 7 days
  • Water Temperature
  • Satellite Maps
  • Weather Map
  • News
  • Weather Widgets
  • user-avatar
    Login

    Hourly Weather Shargorod

    Today, 18 April, Thursday

    Time Temperature Precipitation Wind Pressure Humidity
    00:00 +7°C° 0 mm 3 mps 746 mmHg 92%
    01:00 +7°C° 0 mm 3 mps 746 mmHg 93%
    02:00 +5°C° 0 mm 3 mps 746 mmHg 94%
    03:00 +5°C° 0 mm 3 mps 746 mmHg 94%
    04:00 +4°C° 0 mm 3 mps 746 mmHg 94%
    05:00 +4°C° 0 mm 3 mps 746 mmHg 94%
    06:00 +5°C° 0 mm 3 mps 747 mmHg 89%
    07:00 +7°C° 0 mm 3 mps 747 mmHg 84%
    08:00 +8°C° 0 mm 3 mps 748 mmHg 78%
    09:00 +10°C° 0 mm 4 mps 748 mmHg 71%
    10:00 +11°C° 0 mm 4 mps 748 mmHg 63%
    11:00 +12°C° 0 mm 5 mps 748 mmHg 56%
    12:00 +12°C° 0 mm 4 mps 748 mmHg 55%
    13:00 +12°C° 0 mm 4 mps 747 mmHg 53%
    14:00 +12°C° 0 mm 4 mps 747 mmHg 51%
    15:00 +12°C° 0 mm 4 mps 747 mmHg 51%
    16:00 +13°C° 0 mm 3 mps 747 mmHg 50%
    17:00 +13°C° 0 mm 3 mps 746 mmHg 50%
    18:00 +13°C° 0 mm 2 mps 746 mmHg 53%
    19:00 +12°C° 0 mm 2 mps 746 mmHg 57%
    20:00 +11°C° 0 mm 1 mps 746 mmHg 61%
    21:00 +10°C° 0 mm 2 mps 746 mmHg 61%
    22:00 +9°C° 0 mm 2 mps 745 mmHg 62%
    23:00 +9°C° 0 mm 2 mps 745 mmHg 63%

    Tomorrow, 19 April, Friday

    Time Temperature Precipitation Wind Pressure Humidity
    00:00 +9°C° 0.4 mm 2 mps 745 mmHg 69%
    01:00 +8°C° 0.4 mm 2 mps 744 mmHg 75%
    02:00 +8°C° 0.4 mm 2 mps 744 mmHg 81%
    03:00 +7°C° 0.1 mm 3 mps 744 mmHg 82%
    04:00 +6°C° 0.1 mm 4 mps 743 mmHg 83%
    05:00 +5°C° 0.1 mm 5 mps 743 mmHg 84%
    06:00 +5°C° 0 mm 6 mps 744 mmHg 80%
    07:00 +5°C° 0 mm 7 mps 744 mmHg 76%
    08:00 +6°C° 0 mm 7 mps 744 mmHg 72%
    09:00 +8°C° 0 mm 7 mps 745 mmHg 67%
    10:00 +9°C° 0 mm 7 mps 745 mmHg 61%
    11:00 +11°C° 0 mm 7 mps 745 mmHg 56%
    12:00 +11°C° 0.5 mm 7 mps 746 mmHg 58%
    13:00 +11°C° 0.5 mm 6 mps 746 mmHg 59%
    14:00 +11°C° 0.5 mm 6 mps 746 mmHg 61%
    15:00 +10°C° 0.3 mm 5 mps 746 mmHg 61%
    16:00 +11°C° 0.3 mm 4 mps 746 mmHg 61%
    17:00 +11°C° 0.3 mm 4 mps 746 mmHg 62%
    18:00 +10°C° 0 mm 3 mps 747 mmHg 65%
    19:00 +8°C° 0 mm 3 mps 747 mmHg 69%
    20:00 +7°C° 0 mm 2 mps 747 mmHg 73%
    21:00 +7°C° 0 mm 2 mps 747 mmHg 73%
    22:00 +6°C° 0 mm 2 mps 748 mmHg 73%
    23:00 +6°C° 0 mm 2 mps 748 mmHg 73%

    Day after tomorrow, 20 April, Saturday

    Time Temperature Precipitation Wind Pressure Humidity
    00:00 +6°C° 0 mm 2 mps 748 mmHg 74%
    01:00 +5°C° 0 mm 2 mps 748 mmHg 74%
    02:00 +6°C° 0 mm 1 mps 748 mmHg 75%
    03:00 +6°C° 0 mm 1 mps 748 mmHg 76%
    04:00 +5°C° 0 mm 1 mps 748 mmHg 77%
    05:00 +5°C° 0 mm 1 mps 748 mmHg 77%
    06:00 +6°C° 0 mm 1 mps 748 mmHg 72%
    07:00 +8°C° 0 mm 1 mps 748 mmHg 66%
    08:00 +10°C° 0 mm 1 mps 748 mmHg 61%
    09:00 +11°C° 0 mm 1 mps 748 mmHg 55%
    10:00 +12°C° 0 mm 1 mps 748 mmHg 48%
    11:00 +13°C° 0 mm 1 mps 748 mmHg 42%
    12:00 +13°C° 0 mm 1 mps 747 mmHg 42%
    13:00 +14°C° 0 mm 1 mps 747 mmHg 42%
    14:00 +14°C° 0 mm 1 mps 747 mmHg 41%
    15:00 +13°C° 0 mm 2 mps 746 mmHg 45%
    16:00 +13°C° 0 mm 2 mps 746 mmHg 48%
    17:00 +12°C° 0 mm 3 mps 746 mmHg 52%
    18:00 +12°C° 0.3 mm 2 mps 746 mmHg 59%
    19:00 +10°C° 0.3 mm 2 mps 746 mmHg 66%
    20:00 +9°C° 0.3 mm 2 mps 746 mmHg 73%
    21:00 +9°C° 0.2 mm 2 mps 745 mmHg 75%
    22:00 +10°C° 0.2 mm 1 mps 745 mmHg 76%
    23:00 +9°C° 0.2 mm 1 mps 745 mmHg 77%

    21 April, Sunday

    Time Temperature Precipitation Wind Pressure Humidity
    00:00 +9°C° 0 mm 1 mps 745 mmHg 78%
    01:00 +9°C° 0 mm 1 mps 745 mmHg 79%
    02:00 +8°C° 0 mm 1 mps 744 mmHg 81%
    03:00 +8°C° 0.1 mm 1 mps 744 mmHg 82%
    04:00 +8°C° 0.1 mm 1 mps 744 mmHg 84%
    05:00 +8°C° 0.1 mm 1 mps 744 mmHg 85%
    06:00 +8°C° 0.2 mm 1 mps 744 mmHg 83%
    07:00 +9°C° 0.2 mm 1 mps 744 mmHg 81%
    08:00 +9°C° 0.2 mm 1 mps 744 mmHg 79%
    09:00 +9°C° 0.3 mm 2 mps 744 mmHg 73%
    10:00 +10°C° 0.3 mm 2 mps 744 mmHg 67%
    11:00 +13°C° 0.3 mm 2 mps 744 mmHg 61%
    12:00 +12°C° 0.4 mm 3 mps 743 mmHg 58%
    13:00 +13°C° 0.4 mm 3 mps 743 mmHg 56%
    14:00 +13°C° 0.4 mm 3 mps 743 mmHg 53%
    15:00 +13°C° 0.3 mm 3 mps 743 mmHg 55%
    16:00 +13°C° 0.3 mm 4 mps 743 mmHg 57%
    17:00 +12°C° 0.3 mm 4 mps 743 mmHg 59%
    18:00 +11°C° 0.1 mm 4 mps 743 mmHg 65%
    19:00 +10°C° 0.1 mm 3 mps 743 mmHg 71%
    20:00 +9°C° 0.1 mm 3 mps 743 mmHg 76%
    21:00 +8°C° 0 mm 3 mps 743 mmHg 77%
    22:00 +8°C° 0 mm 3 mps 743 mmHg 77%
    23:00 +7°C° 0 mm 3 mps 744 mmHg 78%

    22 April, Monday

    Time Temperature Precipitation Wind Pressure Humidity
    00:00 +6°C° 0 mm 4 mps 744 mmHg 76%
    01:00 +6°C° 0 mm 4 mps 744 mmHg 74%
    02:00 +6°C° 0 mm 4 mps 744 mmHg 72%
    03:00 +5°C° 0 mm 4 mps 744 mmHg 72%
    04:00 +4°C° 0 mm 4 mps 744 mmHg 72%
    05:00 +4°C° 0 mm 3 mps 744 mmHg 72%
    06:00 +5°C° 0 mm 4 mps 745 mmHg 66%
    07:00 +7°C° 0 mm 5 mps 745 mmHg 60%
    08:00 +8°C° 0 mm 5 mps 746 mmHg 54%
    09:00 +9°C° 0 mm 6 mps 746 mmHg 51%
    10:00 +11°C° 0 mm 6 mps 746 mmHg 48%
    11:00 +13°C° 0 mm 6 mps 746 mmHg 45%
    12:00 +13°C° 0 mm 6 mps 746 mmHg 45%
    13:00 +14°C° 0 mm 6 mps 746 mmHg 44%
    14:00 +14°C° 0 mm 6 mps 746 mmHg 43%
    15:00 +14°C° 0 mm 6 mps 746 mmHg 44%
    16:00 +13°C° 0 mm 6 mps 746 mmHg 45%
    17:00 +13°C° 0 mm 6 mps 746 mmHg 46%
    18:00 +12°C° 0 mm 5 mps 746 mmHg 51%
    19:00 +10°C° 0 mm 4 mps 746 mmHg 56%
    20:00 +8°C° 0 mm 4 mps 747 mmHg 62%
    21:00 +7°C° 0 mm 4 mps 747 mmHg 63%
    22:00 +8°C° 0 mm 3 mps 747 mmHg 65%
    23:00 +7°C° 0 mm 3 mps 747 mmHg 67%

    23 April, Tuesday

    Time Temperature Precipitation Wind Pressure Humidity
    00:00 +7°C° 0 mm 3 mps 748 mmHg 67%
    01:00 +5°C° 0 mm 3 mps 748 mmHg 68%
    02:00 +5°C° 0 mm 3 mps 748 mmHg 69%
    03:00 +5°C° 0 mm 3 mps 748 mmHg 71%
    04:00 +4°C° 0 mm 3 mps 748 mmHg 72%
    05:00 +4°C° 0 mm 3 mps 748 mmHg 73%
    06:00 +6°C° 0 mm 4 mps 748 mmHg 68%
    07:00 +7°C° 0 mm 4 mps 749 mmHg 63%
    08:00 +9°C° 0 mm 5 mps 749 mmHg 58%
    09:00 +10°C° 0 mm 5 mps 749 mmHg 54%
    10:00 +11°C° 0 mm 6 mps 749 mmHg 50%
    11:00 +14°C° 0 mm 7 mps 749 mmHg 46%
    12:00 +14°C° 0 mm 7 mps 749 mmHg 45%
    13:00 +14°C° 0 mm 7 mps 748 mmHg 45%
    14:00 +15°C° 0 mm 7 mps 748 mmHg 45%
    15:00 +14°C° 0 mm 7 mps 748 mmHg 47%
    16:00 +14°C° 0 mm 7 mps 747 mmHg 49%
    17:00 +14°C° 0 mm 7 mps 747 mmHg 51%
    18:00 +11°C° 0 mm 6 mps 747 mmHg 55%
    19:00 +10°C° 0 mm 5 mps 747 mmHg 59%
    20:00 +10°C° 0 mm 4 mps 747 mmHg 63%
    21:00 +8°C° 0 mm 4 mps 747 mmHg 64%
    22:00 +7°C° 0 mm 4 mps 747 mmHg 66%
    23:00 +7°C° 0 mm 4 mps 747 mmHg 68%
    Show more